Terminal Aerodrome Forecast
Issued by NWS Lake Charles, LA

Home | Current Version | Previous Version | Text Only | Print | Product List | Glossary On
Versions: 1 2 3 4 5 6 7 8 9 10 11 12 13 14 15 16 17
000
FTUS44 KLCH 260300 AAA
TAFLCH
TAF AMD
KLCH 260305Z 2603/2624 21003KT P6SM SCT200
      TEMPO 2608/2612 4SM BR
     FM261400 25004KT P6SM SCT025
     FM261800 21008KT P6SM SCT040=

USA.gov is the U.S. government's official web portal to all federal, state and local government web resources and services.